Location: Burland Observatory
(39.4088°N, 105.4217°W)
Time: 02:02:01
(UTC-07:00)

Transit 4A - Visible Passes

Search period start: 10 December 2019 00:00
Search period end: 20 December 2019 00:00
Orbit: 870 x 975 km, 66.8° (Epoch: 09 December)

Date Brightness Start Highest point End Pass type
(mag) Time Alt. Az. Time Alt. Az. Time Alt. Az.
10 Dec 9.9 18:18:45 10° W 18:23:24 22° NW 18:27:58 10° N visible
11 Dec 10.2 18:29:31 10° WNW 18:33:07 16° NW 18:36:41 10° N visible
12 Dec 10.3 18:41:04 10° NW 18:42:55 11° NW 18:44:48 10° NNW visible
13 Dec 9.1 16:58:59 10° WSW 17:04:41 38° NW 17:10:16 10° NNE visible
14 Dec 9.6 17:09:07 10° WSW 17:14:15 27° NW 17:19:17 10° N visible
15 Dec 10.0 17:19:36 10° W 17:23:53 19° NW 17:28:08 10° N visible
16 Dec 10.1 17:30:34 10° WNW 17:33:39 14° NW 17:36:42 10° N visible
